This demonstration page uses our WeatherBlox Daily Observations layout. Learn more.

Hourly Observations for February 8, 2017

Temp ( °F °C ) Dew Point ( °F °C ) Humidity (%) Winds ( mph kmh ) Pressure ( in mb ) Visibility ( mi km ) Precip ( " mm )
12:54 am 00:54 Cloudy 20 -6.7 14 -10 78 78 N 17 28 29.99 1016 10 16.0934 0 0
1:10 am 01:10 Cloudy 19 -7 14 -10 79 79 N 14 22 30.03 1017 10 16.0934 0 0
1:22 am 01:22 Cloudy 19 -7 12 -11 73 73 N 15 24 30.03 1017 10 16.0934 0 0
1:54 am 01:54 Mostly Cloudy with Scattered Snow Showers 19 -7.2 13 -10.6 77 77 N 14 22 29.98 1015 10 16.0934 0 0.0254
2:54 am 02:54 Mostly Cloudy 18 -7.8 13 -10.6 81 81 N 14 22 29.97 1015 10 16.0934 0 0.0254
3:54 am 03:54 Cloudy 18 -7.8 12 -11.1 77 77 NNE 14 22 29.96 1015 10 16.0934 0 0
4:44 am 04:44 Cloudy 18 -8 12 -11 79 79 N 20 31 30.12 1020 10 16.0934 0 0
4:54 am 04:54 Cloudy 17 -8.3 12 -11.1 80 80 NNE 17 28 29.98 1015 10 16.0934 0 0
5:08 am 05:08 Cloudy 18 -7.8 12 -11.1 77 77 NNE 16 26 30.03 1017 10 16.0934 0 0
5:35 am 05:35 Windy with Snow Likely 17 -8.3 12 -11.1 80 80 N 20 31 30.12 1020 1.75 2.816345 0 0.0254
5:44 am 05:44 Cloudy with Light Snow 16 -9 12 -11 86 86 N 18 30 30.12 1020 1.25 2.011675 0 0
5:52 am 05:52 Cloudy with Light Snow 18 -8 12 -11 79 79 N 17 28 30.12 1020 2 3.21868 0 0
5:54 am 05:54 Cloudy with Light Snow 17 -8.3 13 -10.6 84 84 N 17 28 30.05 1018 2.5 4.02335 0 0.0254
6:01 am 06:01 Windy with Snow Likely 17 -8.3 13 -10.6 84 84 N 22 35 30.12 1020 4 6.43736 0 0.0254
6:54 am 06:54 Windy with Snow Likely 16 -8.9 11 -11.7 80 80 N 20 31 30.13 1020 4 6.43736 0.01 0.254
7:22 am 07:22 Windy with Snow Likely 16 -9 10 -12 79 79 N 23 37 30.21 1023 2.5 4.02335 0 0
7:31 am 07:31 Windy with Snow Likely 15 -9.4 10 -12.2 80 80 N 21 33 30.21 1023 3 4.82802 0 0.0254
7:54 am 07:54 Cloudy 15 -9.4 9 -12.8 77 77 N 20 31 30.16 1022 10 16.0934 0 0.0254
8:54 am 08:54 Cloudy 15 -9.4 8 -13.3 74 74 N 23 37 30.23 1024 10 16.0934 0 0
9:54 am 09:54 Cloudy with Light Snow 15 -9.4 9 -12.8 77 77 N 17 28 30.26 1025 3 4.82802 0 0.0254
10:54 am 10:54 Windy with Snow Likely 16 -8.9 9 -12.8 74 74 N 21 33 30.29 1026 2 3.21868 0 0.0254
11:50 am 11:50 Cloudy 18 -8 10 -12 73 73 N 16 26 30.39 1029 10 16.0934 0 0
11:54 am 11:54 Cloudy 19 -7.2 9 -12.8 65 65 N 15 24 30.31 1026 10 16.0934 0 0.0254
12:54 pm 12:54 Sunny 20 -6.7 8 -13.3 60 60 N 15 24 30.3 1026 10 16.0934 0 0
1:54 pm 13:54 Sunny 22 -5.6 7 -13.9 52 52 N 13 20 30.3 1026 10 16.0934 0 0
2:54 pm 14:54 Sunny 22 -5.6 6 -14.4 50 50 NW 15 24 30.31 1026 10 16.0934 0 0
3:54 pm 15:54 Sunny 22 -5.6 5 -15 48 48 NNW 14 22 30.31 1026 10 16.0934 0 0
4:54 pm 16:54 Sunny 20 -6.7 5 -15 52 52 N 9 15 30.31 1026 10 16.0934 0 0
5:54 pm 17:54 Clear 18 -7.8 4 -15.6 54 54 NNW 10 17 30.34 1028 10 16.0934 0 0
6:54 pm 18:54 Clear 15 -9.4 4 -15.6 61 61 NNW 9 15 30.36 1028 10 16.0934 0 0
7:54 pm 19:54 Clear 14 -10 4 -15.6 64 64 N 9 15 30.38 1029 10 16.0934 0 0
8:54 pm 20:54 Clear 13 -10.6 4 -15.6 67 67 NW 5 7 30.41 1030 10 16.0934 0 0
9:54 pm 21:54 Clear 12 -11.1 4 -15.6 70 70 NW 6 9 30.44 1031 10 16.0934 0 0
10:54 pm 22:54 Clear 12 -11.1 4 -15.6 70 70 WNW 6 9 30.44 1031 10 16.0934 0 0
11:54 pm 23:54 Clear 13 -10.6 4 -15.6 67 67 W 5 7 30.43 1031 10 16.0934 0 0

Powered by AerisWeather